Location: Grasslands National Park East Block
(49.0708°N, 106.5295°W)
Time: 19:48:21
(UTC-06:00)

Vanguard 1 - Pass Details

Date: 25 September 2019
Orbit: 653 x 3830 km, 34.2° (Epoch: 20 October)

Event Time Altitude Azimuth Distance (km) Brightness Sun altitude
Rises 04:38:35 0° 257° (WSW) 7,869 - -22.7°
Reaches altitude 10° 04:44:06 10° 254° (WSW) 6,926 - -21.8°
Exits shadow 04:51:33 25° 245° (WSW) 5,676 13.2 -20.7°
Maximum altitude 05:05:46 51° 188° (S) 3,939 12.8 -18.6°
Drops below altitude 10° 05:21:04 10° 119° (ESE) 5,061 14.3 -16.2°
Sets 05:24:22 0° 114° (ESE) 5,710 14.8 -15.7°
